,,,PA_Meas_PMT16A,,PR_Meas_QMR101_102,,RH_Meas_QMH101,,SR_Meas_QMS101,,TA_Meas_QMH101,,GenWind,,GenWind,
date,time,status,PA,status,PR,status,RH,status,SR,status,TA,status,DirAvg,status,SpdAvg,
2014-10-24, 00:00:04,VALID,1010.99,VALID,0,INVALID,135.166,VALID,0,VALID,23.7135,VALID,5,VALID,0,
2014-10-24, 00:01:04,VALID,1011,VALID,0,INVALID,135.098,VALID,0,VALID,23.7135,VALID,5,VALID,0,
2014-10-24, 00:02:04,VALID,1010.98,VALID,0,INVALID,135.044,VALID,0,VALID,23.7135,VALID,5,VALID,0,
2014-10-24, 00:03:04,VALID,1010.99,VALID,0,INVALID,134.999,VALID,0,VALID,23.7135,VALID,5,VALID,0,
2014-10-24, 00:04:04,VALID,1010.99,VALID,0,INVALID,134.922,VALID,0,VALID,23.7135,VALID,5,VALID,0,
2014-10-24, 00:05:04,VALID,1010.97,VALID,0,INVALID,134.938,VALID,0,VALID,23.694,VALID,5,VALID,0,
2014-10-24, 00:06:04,VALID,1010.98,VALID,0,INVALID,134.922,VALID,0,VALID,23.7153,VALID,5,VALID,0,
2014-10-24, 00:07:04,VALID,1010.97,VALID,0,INVALID,134.93,VALID,0,VALID,23.694,VALID,5,VALID,0,
2014-10-24, 00:08:05,VALID,1010.95,VALID,0,INVALID,134.884,VALID,0,VALID,23.6532,VALID,5,VALID,0,
2014-10-24, 00:09:05,VALID,1010.97,VALID,0,INVALID,134.846,VALID,0,VALID,23.6745,VALID,5,VALID,0,
2014-10-24, 00:10:05,VALID,1010.96,VALID,0,INVALID,134.793,VALID,0,VALID,23.6745,VALID,5,VALID,0,
2014-10-24, 00:11:05,VALID,1010.95,VALID,0,INVALID,134.762,VALID,0,VALID,23.6958,VALID,5,VALID,0,
2014-10-24, 00:12:05,VALID,1010.96,VALID,0,INVALID,134.648,VALID,0,VALID,23.6745,VALID,5,VALID,0,
2014-10-24, 00:13:05,VALID,1010.97,VALID,0,INVALID,134.587,VALID,0,VALID,23.6745,VALID,5,VALID,0,
2014-10-24, 00:14:05,VALID,1010.96,VALID,0,INVALID,134.511,VALID,0,VALID,23.694,VALID,5,VALID,0,
2014-10-24, 00:15:05,VALID,1010.98,VALID,0,INVALID,134.488,VALID,0,VALID,23.694,VALID,5,VALID,0,
2014-10-24, 00:16:05,VALID,1011,VALID,0,INVALID,134.442,VALID,0,VALID,23.6727,VALID,5,VALID,0,
2014-10-24, 00:17:05,VALID,1011.01,VALID,0,INVALID,134.351,VALID,0,VALID,23.6745,VALID,5,VALID,0,
2014-10-24, 00:18:05,VALID,1011.03,VALID,0,INVALID,134.366,VALID,0,VALID,23.694,VALID,5,VALID,0.0523437,
2014-10-24, 00:19:05,VALID,1011.01,VALID,0,INVALID,134.328,VALID,0,VALID,23.694,VALID,5,VALID,0.316797,
2014-10-24, 00:20:05,VALID,1011.03,VALID,0,INVALID,134.274,VALID,0,VALID,23.694,VALID,5,VALID,0.532031,
2014-10-24, 00:21:05,VALID,1011.04,VALID,0,INVALID,134.038,VALID,0,VALID,23.7135,VALID,5,VALID,0.392188,
2014-10-24, 00:22:05,VALID,1011.05,VALID,0,INVALID,133.962,VALID,0,VALID,23.7117,VALID,5,VALID,0.359375,
2014-10-24, 00:23:05,VALID,1011.06,VALID,0,INVALID,133.832,VALID,0,VALID,23.733,VALID,5,VALID,0.587891,
2014-10-24, 00:24:05,VALID,1011.07,VALID,0,INVALID,133.74,VALID,0,VALID,23.7525,VALID,5,VALID,0.354688,
2014-10-24, 00:25:05,VALID,1011.05,VALID,0,INVALID,133.725,VALID,0,VALID,23.772,VALID,5,VALID,0.426953,
2014-10-24, 00:26:05,VALID,1011.06,VALID,0,INVALID,133.634,VALID,0,VALID,23.7525,VALID,5,VALID,0.4375,
2014-10-24, 00:27:05,VALID,1011.04,VALID,0,INVALID,133.641,VALID,0,VALID,23.7525,VALID,5,VALID,0.111328,
2014-10-24, 00:28:05,VALID,1011.06,VALID,0,INVALID,133.672,VALID,0,VALID,23.7525,VALID,5,VALID,0.191016,
2014-10-24, 00:29:05,VALID,1011.07,VALID,0,INVALID,133.71,VALID,0,VALID,23.7525,VALID,5,VALID,0.202344,
2014-10-24, 00:30:05,VALID,1011.09,VALID,0,INVALID,133.718,VALID,0,VALID,23.733,VALID,5,VALID,0,
2014-10-24, 00:31:05,VALID,1011.07,VALID,0,INVALID,133.71,VALID,0,VALID,23.733,VALID,5,VALID,0,
2014-10-24, 00:32:05,VALID,1011.13,VALID,0,INVALID,133.672,VALID,0,VALID,23.7525,VALID,5,VALID,0.286719,
2014-10-24, 00:33:05,VALID,1011.11,VALID,0,INVALID,133.55,VALID,0,VALID,23.7701,VALID,5,VALID,0.698828,
2014-10-24, 00:34:05,VALID,1011.14,VALID,0,INVALID,133.435,VALID,0,VALID,23.7896,VALID,5,VALID,0.719141,
2014-10-24, 00:35:05,VALID,1011.13,VALID,0,INVALID,133.321,VALID,0,VALID,23.8109,VALID,5,VALID,0.584766,
2014-10-24, 00:36:05,VALID,1011.13,VALID,0,INVALID,133.344,VALID,0,VALID,23.8304,VALID,5,VALID,0.551953,
2014-10-24, 00:37:05,VALID,1011.15,VALID,0,INVALID,133.428,VALID,0,VALID,23.8109,VALID,5,VALID,0.627344,
2014-10-24, 00:38:05,VALID,1011.12,VALID,0,INVALID,133.496,VALID,0,VALID,23.7896,VALID,5,VALID,0.441406,
2014-10-24, 00:39:05,VALID,1011.13,VALID,0,INVALID,133.588,VALID,0,VALID,23.8109,VALID,5,VALID,0.328125,
2014-10-24, 00:40:05,VALID,1011.13,VALID,0,INVALID,133.672,VALID,0,VALID,23.8109,VALID,5,VALID,0.216016,
2014-10-24, 00:41:05,VALID,1011.12,VALID,0,INVALID,133.786,VALID,0,VALID,23.7914,VALID,5,VALID,0.0523437,
2014-10-24, 00:42:05,VALID,1011.07,VALID,0,INVALID,133.832,VALID,0,VALID,23.7914,VALID,5,VALID,0.000390625,
2014-10-24, 00:43:05,VALID,1011.06,VALID,0,INVALID,133.923,VALID,0,VALID,23.7914,VALID,5,VALID,0,
2014-10-24, 00:44:05,VALID,1011.04,VALID,0,INVALID,133.946,VALID,0,VALID,23.7701,VALID,5,VALID,0.364844,
2014-10-24, 00:45:05,VALID,1011.02,VALID,0,INVALID,133.984,VALID,0,VALID,23.7914,VALID,5,VALID,0.104297,
2014-10-24, 00:46:05,VALID,1011.02,VALID,0,INVALID,134.068,VALID,0,VALID,23.772,VALID,5,VALID,0,
2014-10-24, 00:47:05,VALID,1010.98,VALID,0,INVALID,134.129,VALID,0,VALID,23.772,VALID,5,VALID,0.213281,
2014-10-24, 00:48:05,VALID,1010.97,VALID,0,INVALID,134.19,VALID,0,VALID,23.772,VALID,5,VALID,0,
2014-10-24, 00:49:05,VALID,1010.97,VALID,0,INVALID,134.236,VALID,0,VALID,23.772,VALID,5,VALID,0,
2014-10-24, 00:50:05,VALID,1010.96,VALID,0,INVALID,134.32,VALID,0,VALID,23.7525,VALID,5,VALID,0,
2014-10-24, 00:51:05,VALID,1010.93,VALID,0,INVALID,134.343,VALID,0,VALID,23.7525,VALID,5,VALID,0,
2014-10-24, 00:52:05,VALID,1010.93,VALID,0,INVALID,134.351,VALID,0,VALID,23.7525,VALID,5,VALID,0,
2014-10-24, 00:53:05,VALID,1010.93,VALID,0,INVALID,134.442,VALID,0,VALID,23.7525,VALID,5,VALID,0.321094,
2014-10-24, 00:54:05,VALID,1010.92,VALID,0,INVALID,134.473,VALID,0,VALID,23.7525,VALID,5,VALID,0.322656,
2014-10-24, 00:55:05,VALID,1010.87,VALID,0,INVALID,134.579,VALID,0,VALID,23.733,VALID,5,VALID,0.294141,
2014-10-24, 00:56:05,VALID,1010.91,VALID,0,INVALID,134.678,VALID,0,VALID,23.7135,VALID,5,VALID,0.147656,
2014-10-24, 00:57:05,VALID,1010.85,VALID,0,INVALID,134.717,VALID,0,VALID,23.694,VALID,5,VALID,0,
2014-10-24, 00:58:05,VALID,1010.82,VALID,0,INVALID,134.831,VALID,0,VALID,23.7135,VALID,5,VALID,0,
2014-10-24, 00:59:05,VALID,1010.82,VALID,0,INVALID,134.839,VALID,0,VALID,23.6727,VALID,5,VALID,0,
2014-10-24, 01:00:05,VALID,1010.79,VALID,0,INVALID,134.884,VALID,0,VALID,23.694,VALID,5,VALID,0,
2014-10-24, 01:01:05,VALID,1010.75,VALID,0,INVALID,134.884,VALID,0,VALID,23.6727,VALID,5,VALID,0,
2014-10-24, 01:02:05,VALID,1010.72,VALID,0,INVALID,134.77,VALID,0,VALID,23.7135,VALID,5,VALID,0,
2014-10-24, 01:03:05,VALID,1010.68,VALID,0,INVALID,134.671,VALID,0,VALID,23.7135,VALID,5,VALID,0.0882813,
2014-10-24, 01:04:05,VALID,1010.65,VALID,0,INVALID,134.556,VALID,0,VALID,23.733,VALID,5,VALID,0.0492188,
2014-10-24, 01:05:05,VALID,1010.61,VALID,0,INVALID,134.526,VALID,0,VALID,23.7525,VALID,5,VALID,0,
2014-10-24, 01:06:05,VALID,1010.6,VALID,0,INVALID,134.541,VALID,0,VALID,23.7525,VALID,5,VALID,0,
2014-10-24, 01:07:05,VALID,1010.62,VALID,0,INVALID,134.556,VALID,0,VALID,23.7525,VALID,5,VALID,0.162109,
2014-10-24, 01:08:05,VALID,1010.59,VALID,0,INVALID,134.564,VALID,0,VALID,23.7738,VALID,5,VALID,0,
2014-10-24, 01:09:05,VALID,1010.57,VALID,0,INVALID,134.587,VALID,0,VALID,23.7525,VALID,5,VALID,0,
2014-10-24, 01:10:05,VALID,1010.56,VALID,0,INVALID,134.617,VALID,0,VALID,23.733,VALID,5,VALID,0,
2014-10-24, 01:11:05,VALID,1010.56,VALID,0,INVALID,134.663,VALID,0,VALID,23.7117,VALID,5,VALID,0,
2014-10-24, 01:12:05,VALID,1010.57,VALID,0,INVALID,134.694,VALID,0,VALID,23.7135,VALID,5,VALID,0,
2014-10-24, 01:13:05,VALID,1010.52,VALID,0,INVALID,134.717,VALID,0,VALID,23.6922,VALID,5,VALID,0,
2014-10-24, 01:14:05,VALID,1010.53,VALID,0,INVALID,134.77,VALID,0,VALID,23.6727,VALID,5,VALID,0,
2014-10-24, 01:15:05,VALID,1010.46,VALID,0,INVALID,134.839,VALID,0,VALID,23.6745,VALID,5,VALID,0,
2014-10-24, 01:16:05,VALID,1010.44,VALID,0,INVALID,134.892,VALID,0,VALID,23.6763,VALID,5,VALID,0.0910156,
2014-10-24, 01:17:05,VALID,1010.42,VALID,0,INVALID,134.854,VALID,0,VALID,23.6356,VALID,5,VALID,0.352344,
2014-10-24, 01:18:05,VALID,1010.38,VALID,0,INVALID,134.922,VALID,0,VALID,23.6356,VALID,5,VALID,0.271484,
2014-10-24, 01:19:05,VALID,1010.39,VALID,0,INVALID,134.915,VALID,0,VALID,23.6568,VALID,5,VALID,0.263672,
2014-10-24, 01:20:05,VALID,1010.41,VALID,0,INVALID,134.953,VALID,0,VALID,23.6161,VALID,5,VALID,0.0410156,
2014-10-24, 01:21:05,VALID,1010.43,VALID,0,INVALID,134.983,VALID,0,VALID,23.5966,VALID,5,VALID,0,
2014-10-24, 01:22:05,VALID,1010.41,VALID,0,INVALID,135.029,VALID,0,VALID,23.6161,VALID,5,VALID,0.00234375,
2014-10-24, 01:23:05,VALID,1010.43,VALID,0,INVALID,134.976,VALID,0,VALID,23.5966,VALID,5,VALID,0.307031,
2014-10-24, 01:24:05,VALID,1010.42,VALID,0,INVALID,134.953,VALID,0,VALID,23.5966,VALID,5,VALID,0.609375,
2014-10-24, 01:25:05,VALID,1010.4,VALID,0,INVALID,134.701,VALID,0,VALID,23.6338,VALID,5,VALID,0.751172,
2014-10-24, 01:26:05,VALID,1010.4,VALID,0,INVALID,134.556,VALID,0.112112,VALID,23.6745,VALID,5,VALID,0.742578,
2014-10-24, 01:27:05,VALID,1010.33,VALID,0,INVALID,134.335,VALID,0.112112,VALID,23.6745,VALID,5,VALID,0.632813,
2014-10-24, 01:28:05,VALID,1010.32,VALID,0,INVALID,134.236,VALID,0,VALID,23.694,VALID,5,VALID,0.3625,
2014-10-24, 01:29:05,VALID,1010.32,VALID,0,INVALID,134.236,VALID,0,VALID,23.694,VALID,5,VALID,0.5625,
2014-10-24, 01:30:05,VALID,1010.34,VALID,0,INVALID,134.229,VALID,0,VALID,23.694,VALID,5,VALID,0.545313,
2014-10-24, 01:31:05,VALID,1010.29,VALID,0,INVALID,134.19,VALID,0,VALID,23.694,VALID,5,VALID,0.341406,
2014-10-24, 01:32:05,VALID,1010.29,VALID,0,INVALID,134.19,VALID,0,VALID,23.694,VALID,5,VALID,0.236328,
2014-10-24, 01:33:05,VALID,1010.3,VALID,0,INVALID,134.213,VALID,0,VALID,23.6745,VALID,5,VALID,0.217187,
2014-10-24, 01:34:05,VALID,1010.27,VALID,0,INVALID,134.229,VALID,0,VALID,23.6745,VALID,5,VALID,0.323047,
2014-10-24, 01:35:05,VALID,1010.25,VALID,0,INVALID,134.297,VALID,0,VALID,23.6745,VALID,5,VALID,0.275781,
2014-10-24, 01:36:05,VALID,1010.24,VALID,0,INVALID,134.396,VALID,0,VALID,23.655,VALID,5,VALID,0,
2014-10-24, 01:37:05,VALID,1010.22,VALID,0,INVALID,134.404,VALID,0,VALID,23.6356,VALID,5,VALID,0.660937,
2014-10-24, 01:38:05,VALID,1010.16,VALID,0,INVALID,134.465,VALID,0,VALID,23.6356,VALID,5,VALID,0.327734,
2014-10-24, 01:39:05,VALID,1010.18,VALID,0,INVALID,134.45,VALID,0,VALID,23.6143,VALID,5,VALID,0.6125,
2014-10-24, 01:40:05,VALID,1010.14,VALID,0,INVALID,134.48,VALID,0,VALID,23.655,VALID,5,VALID,0.73125,
2014-10-24, 01:41:05,VALID,1010.18,VALID,0,INVALID,134.503,VALID,0,VALID,23.6356,VALID,5,VALID,0.167187,
2014-10-24, 01:42:05,VALID,1010.15,VALID,0,INVALID,134.534,VALID,0,VALID,23.6161,VALID,5,VALID,0,
2014-10-24, 01:43:05,VALID,1010.13,VALID,0,INVALID,134.602,VALID,0,VALID,23.5966,VALID,5,VALID,0,
2014-10-24, 01:44:05,VALID,1010.11,VALID,0,INVALID,134.686,VALID,0,VALID,23.6161,VALID,5,VALID,0,
2014-10-24, 01:45:05,VALID,1010.09,VALID,0,INVALID,134.717,VALID,0,VALID,23.5966,VALID,5,VALID,0,
2014-10-24, 01:46:05,VALID,1010.09,VALID,0,INVALID,134.785,VALID,0,VALID,23.5966,VALID,5,VALID,0,
2014-10-24, 01:47:05,VALID,1010.05,VALID,0,INVALID,134.869,VALID,0,VALID,23.5771,VALID,5,VALID,0,
2014-10-24, 01:48:05,VALID,1010,VALID,0,INVALID,134.915,VALID,0,VALID,23.5771,VALID,5,VALID,0,
2014-10-24, 01:49:05,VALID,1009.97,VALID,0,INVALID,134.93,VALID,0,VALID,23.5771,VALID,5,VALID,0,
2014-10-24, 01:50:05,VALID,1009.96,VALID,0,INVALID,134.907,VALID,0,VALID,23.5753,VALID,5,VALID,0,
2014-10-24, 01:51:05,VALID,1009.93,VALID,0,INVALID,134.884,VALID,0,VALID,23.5966,VALID,5,VALID,0,
2014-10-24, 01:52:05,VALID,1009.91,VALID,0,INVALID,134.869,VALID,0,VALID,23.5966,VALID,5,VALID,0,
2014-10-24, 01:53:05,VALID,1009.9,VALID,0,INVALID,134.892,VALID,0.112112,VALID,23.5966,VALID,5,VALID,0,
2014-10-24, 01:54:05,VALID,1009.86,VALID,0,INVALID,134.9,VALID,0,VALID,23.5984,VALID,5,VALID,0,
2014-10-24, 01:55:05,VALID,1009.85,VALID,0,INVALID,134.953,VALID,0,VALID,23.5771,VALID,5,VALID,0,
2014-10-24, 01:56:05,VALID,1009.83,VALID,0,INVALID,134.983,VALID,0,VALID,23.5771,VALID,5,VALID,0,
2014-10-24, 01:57:05,VALID,1009.83,VALID,0,INVALID,135.022,VALID,0,VALID,23.5771,VALID,5,VALID,0,
2014-10-24, 01:58:05,VALID,1009.79,VALID,0,INVALID,135.06,VALID,0,VALID,23.5576,VALID,5,VALID,0,
2014-10-24, 01:59:05,VALID,1009.79,VALID,0,INVALID,135.052,VALID,0,VALID,23.5576,VALID,5,VALID,0,
2014-10-24, 02:00:05,VALID,1009.77,VALID,0,INVALID,135.006,VALID,0,VALID,23.5169,VALID,5,VALID,0,
2014-10-24, 02:01:05,VALID,1009.78,VALID,0,INVALID,134.976,VALID,0,VALID,23.5381,VALID,5,VALID,0,
2014-10-24, 02:02:05,VALID,1009.78,VALID,0,INVALID,134.907,VALID,0,VALID,23.5381,VALID,5,VALID,0,
2014-10-24, 02:03:05,VALID,1009.76,VALID,0,INVALID,134.892,VALID,0,VALID,23.5576,VALID,5,VALID,0,
2014-10-24, 02:04:05,VALID,1009.77,VALID,0,INVALID,134.854,VALID,0,VALID,23.5576,VALID,5,VALID,0,
2014-10-24, 02:05:05,VALID,1009.75,VALID,0,INVALID,134.884,VALID,0,VALID,23.5576,VALID,5,VALID,0.200391,
2014-10-24, 02:06:05,VALID,1009.75,VALID,0,INVALID,134.907,VALID,0,VALID,23.5381,VALID,5,VALID,0.263672,
2014-10-24, 02:07:05,VALID,1009.74,VALID,0,INVALID,134.983,VALID,0.112112,VALID,23.5186,VALID,5,VALID,0.223438,
2014-10-24, 02:08:05,VALID,1009.74,VALID,0,INVALID,135.044,VALID,0,VALID,23.5186,VALID,5,VALID,0.146094,
2014-10-24, 02:09:05,VALID,1009.73,VALID,0,INVALID,135.189,VALID,0,VALID,23.4797,VALID,5,VALID,0.0699219,
2014-10-24, 02:10:05,VALID,1009.73,VALID,0,INVALID,135.288,VALID,0,VALID,23.4602,VALID,5,VALID,0.421875,
2014-10-24, 02:11:05,VALID,1009.74,VALID,0,INVALID,135.319,VALID,0,VALID,23.4407,VALID,5,VALID,0.254297,
2014-10-24, 02:12:05,VALID,1009.73,VALID,0,INVALID,135.357,VALID,0,VALID,23.4212,VALID,5,VALID,0.121094,
2014-10-24, 02:13:05,VALID,1009.73,VALID,0,INVALID,135.365,VALID,0,VALID,23.4212,VALID,5,VALID,0,
2014-10-24, 02:14:05,VALID,1009.74,VALID,0,INVALID,135.472,VALID,0,VALID,23.4035,VALID,5,VALID,0.0351563,
2014-10-24, 02:15:05,VALID,1009.74,VALID,0,INVALID,135.464,VALID,0,VALID,23.3823,VALID,5,VALID,0.331641,
2014-10-24, 02:16:05,VALID,1009.73,VALID,0,INVALID,135.472,VALID,0,VALID,23.384,VALID,5,VALID,0.117969,
2014-10-24, 02:17:05,VALID,1009.7,VALID,0,INVALID,135.38,VALID,0,VALID,23.3823,VALID,5,VALID,0.41875,
2014-10-24, 02:18:05,VALID,1009.71,VALID,0,INVALID,135.296,VALID,0,VALID,23.3823,VALID,5,VALID,0.443359,
2014-10-24, 02:19:05,VALID,1009.69,VALID,0,INVALID,135.166,VALID,0,VALID,23.3823,VALID,5,VALID,0.241406,
2014-10-24, 02:20:05,VALID,1009.68,VALID,0,INVALID,135.121,VALID,0,VALID,23.361,VALID,5,VALID,0.205078,
2014-10-24, 02:21:05,VALID,1009.68,VALID,0,INVALID,135.037,VALID,0,VALID,23.361,VALID,5,VALID,0.065625,
2014-10-24, 02:22:05,VALID,1009.65,VALID,0,INVALID,134.983,VALID,0,VALID,23.3823,VALID,5,VALID,0.0179687,
2014-10-24, 02:23:05,VALID,1009.66,VALID,0,INVALID,134.953,VALID,0.112112,VALID,23.3823,VALID,5,VALID,0,
2014-10-24, 02:24:05,VALID,1009.65,VALID,0,INVALID,134.93,VALID,0,VALID,23.3823,VALID,5,VALID,0,
2014-10-24, 02:25:05,VALID,1009.66,VALID,0,INVALID,134.785,VALID,0.112112,VALID,23.4017,VALID,5,VALID,0,
2014-10-24, 02:26:05,VALID,1009.64,VALID,0,INVALID,134.732,VALID,0.112112,VALID,23.3805,VALID,5,VALID,0.0640625,
2014-10-24, 02:27:05,VALID,1009.63,VALID,0,INVALID,134.64,VALID,0.112112,VALID,23.4017,VALID,5,VALID,0,
2014-10-24, 02:28:05,VALID,1009.64,VALID,0,INVALID,134.633,VALID,0,VALID,23.4017,VALID,5,VALID,0,
2014-10-24, 02:29:05,VALID,1009.62,VALID,0,INVALID,134.457,VALID,0,VALID,23.4017,VALID,5,VALID,0,
2014-10-24, 02:30:05,VALID,1009.58,VALID,0,INVALID,134.412,VALID,0,VALID,23.4212,VALID,5,VALID,0,
2014-10-24, 02:31:05,VALID,1009.6,VALID,0,INVALID,134.351,VALID,0,VALID,23.4017,VALID,5,VALID,0,
2014-10-24, 02:32:05,VALID,1009.58,VALID,0,INVALID,134.297,VALID,0,VALID,23.4017,VALID,5,VALID,0,
2014-10-24, 02:33:05,VALID,1009.58,VALID,0,INVALID,134.335,VALID,0,VALID,23.4017,VALID,5,VALID,0,
2014-10-24, 02:34:05,VALID,1009.56,VALID,0,INVALID,134.381,VALID,0.112112,VALID,23.3823,VALID,5,VALID,0.186719,
2014-10-24, 02:35:05,VALID,1009.57,VALID,0,INVALID,134.404,VALID,0,VALID,23.3628,VALID,5,VALID,0.255859,
2014-10-24, 02:36:05,VALID,1009.57,VALID,0,INVALID,134.442,VALID,0.112112,VALID,23.3433,VALID,5,VALID,0.357422,
2014-10-24, 02:37:05,VALID,1009.57,VALID,0,INVALID,134.473,VALID,0.112112,VALID,23.3238,VALID,5,VALID,0.217187,
2014-10-24, 02:38:05,VALID,1009.61,VALID,0,INVALID,134.511,VALID,0,VALID,23.3043,VALID,5,VALID,0.38125,
2014-10-24, 02:39:05,VALID,1009.63,VALID,0,INVALID,134.427,VALID,0,VALID,23.3043,VALID,5,VALID,0.282031,
2014-10-24, 02:40:05,VALID,1009.64,VALID,0,INVALID,134.343,VALID,0.112112,VALID,23.3238,VALID,5,VALID,0.225,
2014-10-24, 02:41:05,VALID,1009.65,VALID,0,INVALID,134.229,VALID,0,VALID,23.3238,VALID,5,VALID,0.269922,
2014-10-24, 02:42:05,VALID,1009.65,VALID,0,INVALID,134.114,VALID,0,VALID,23.3238,VALID,5,VALID,0.237109,
2014-10-24, 02:43:05,VALID,1009.66,VALID,0,INVALID,134.015,VALID,0,VALID,23.3043,VALID,5,VALID,0.0882813,
2014-10-24, 02:44:05,VALID,1009.63,VALID,0,INVALID,133.878,VALID,0,VALID,23.3433,VALID,5,VALID,0.0582031,
2014-10-24, 02:45:05,VALID,1009.62,VALID,0,INVALID,133.733,VALID,0,VALID,23.3628,VALID,5,VALID,0.248047,
2014-10-24, 02:46:05,VALID,1009.62,VALID,0,INVALID,133.481,VALID,0,VALID,23.3823,VALID,5,VALID,0.440625,
2014-10-24, 02:47:04,VALID,1009.56,VALID,0,INVALID,133.313,VALID,0,VALID,23.4017,VALID,5,VALID,0.284766,
2014-10-24, 02:48:04,VALID,1009.58,VALID,0,INVALID,133.1,VALID,0.112112,VALID,23.4,VALID,5,VALID,0.269141,
2014-10-24, 02:49:04,VALID,1009.55,VALID,0,INVALID,133.062,VALID,0,VALID,23.4212,VALID,5,VALID,0,
2014-10-24, 02:50:04,VALID,1009.52,VALID,0,INVALID,133.024,VALID,0.112112,VALID,23.4212,VALID,5,VALID,0.0222656,
2014-10-24, 02:51:04,VALID,1009.52,VALID,0,INVALID,132.963,VALID,0,VALID,23.4212,VALID,5,VALID,0.367969,
2014-10-24, 02:52:04,VALID,1009.51,VALID,0,INVALID,132.871,VALID,0,VALID,23.4212,VALID,5,VALID,0.184375,
2014-10-24, 02:53:04,VALID,1009.51,VALID,0,INVALID,132.848,VALID,0,VALID,23.4212,VALID,5,VALID,0.294922,
2014-10-24, 02:54:04,VALID,1009.49,VALID,0,INVALID,132.802,VALID,0.112112,VALID,23.4212,VALID,5,VALID,0.229297,
2014-10-24, 02:55:04,VALID,1009.49,VALID,0,INVALID,132.802,VALID,0,VALID,23.4,VALID,5,VALID,0.01875,
2014-10-24, 02:56:04,VALID,1009.51,VALID,0,INVALID,132.863,VALID,0,VALID,23.4017,VALID,5,VALID,0.102344,
2014-10-24, 02:57:04,VALID,1009.47,VALID,0,INVALID,132.894,VALID,0,VALID,23.3823,VALID,5,VALID,0,
2014-10-24, 02:58:04,VALID,1009.51,VALID,0,INVALID,132.825,VALID,0,VALID,23.4017,VALID,5,VALID,0.299609,
2014-10-24, 02:59:04,VALID,1009.48,VALID,0,INVALID,132.833,VALID,0,VALID,23.3823,VALID,5,VALID,0,
2014-10-24, 03:00:04,VALID,1009.48,VALID,0,INVALID,132.772,VALID,0,VALID,23.3823,VALID,5,VALID,0.326172,
2014-10-24, 03:01:04,VALID,1009.46,VALID,0,INVALID,132.719,VALID,0,VALID,23.3628,VALID,5,VALID,0.217969,
2014-10-24, 03:02:04,VALID,1009.48,VALID,0,INVALID,132.665,VALID,0.112112,VALID,23.361,VALID,5,VALID,0.216016,
2014-10-24, 03:03:04,VALID,1009.47,VALID,0,INVALID,132.688,VALID,0,VALID,23.3628,VALID,5,VALID,0.2,
2014-10-24, 03:04:04,VALID,1009.46,VALID,0,INVALID,132.673,VALID,0,VALID,23.3628,VALID,5,VALID,0.219922,
2014-10-24, 03:05:04,VALID,1009.46,VALID,0,INVALID,132.688,VALID,0,VALID,23.3433,VALID,5,VALID,0.373828,
2014-10-24, 03:06:04,VALID,1009.51,VALID,0,INVALID,132.574,VALID,0,VALID,23.3628,VALID,5,VALID,0.374219,
2014-10-24, 03:07:04,VALID,1009.48,VALID,0,INVALID,132.505,VALID,0,VALID,23.3415,VALID,5,VALID,0.117578,
2014-10-24, 03:08:04,VALID,1009.49,VALID,0,INVALID,132.436,VALID,0.112112,VALID,23.3628,VALID,5,VALID,0.16875,
2014-10-24, 03:09:04,VALID,1009.51,VALID,0,INVALID,132.345,VALID,0,VALID,23.3823,VALID,5,VALID,0.340625,
2014-10-24, 03:10:04,VALID,1009.47,VALID,0,INVALID,132.185,VALID,0,VALID,23.4017,VALID,5,VALID,0.490234,
2014-10-24, 03:11:04,VALID,1009.49,VALID,0,INVALID,132.086,VALID,0,VALID,23.4212,VALID,5,VALID,0.455078,
2014-10-24, 03:12:04,VALID,1009.52,VALID,0,INVALID,131.994,VALID,0,VALID,23.4212,VALID,5,VALID,0.5875,
2014-10-24, 03:13:04,VALID,1009.49,VALID,0,INVALID,131.956,VALID,0,VALID,23.4212,VALID,5,VALID,0.771094,
2014-10-24, 03:14:04,VALID,1009.49,VALID,0,INVALID,132.017,VALID,0,VALID,23.4017,VALID,5,VALID,0.245312,
2014-10-24, 03:15:04,VALID,1009.51,VALID,0,INVALID,132.139,VALID,0,VALID,23.3823,VALID,5,VALID,0.354688,
2014-10-24, 03:16:04,VALID,1009.53,VALID,0,INVALID,132.07,VALID,0,VALID,23.4017,VALID,5,VALID,0.417969,
2014-10-24, 03:17:04,VALID,1009.54,VALID,0,INVALID,132.078,VALID,0,VALID,23.4017,VALID,5,VALID,0.271875,
2014-10-24, 03:18:04,VALID,1009.53,VALID,0,INVALID,132.063,VALID,0,VALID,23.3823,VALID,5,VALID,0.167187,
2014-10-24, 03:19:04,VALID,1009.53,VALID,0,INVALID,132.07,VALID,0,VALID,23.3823,VALID,5,VALID,0.144922,
2014-10-24, 03:20:04,VALID,1009.52,VALID,0,INVALID,132.002,VALID,0,VALID,23.3823,VALID,5,VALID,0.725781,
2014-10-24, 03:21:04,VALID,1009.51,VALID,0,INVALID,131.948,VALID,0,VALID,23.361,VALID,5,VALID,0.385938,
2014-10-24, 03:22:04,VALID,1009.49,VALID,0,INVALID,131.987,VALID,0,VALID,23.3823,VALID,5,VALID,0.382031,
2014-10-24, 03:23:04,VALID,1009.48,VALID,0,INVALID,131.956,VALID,0,VALID,23.3823,VALID,5,VALID,0.504687,
2014-10-24, 03:24:04,VALID,1009.44,VALID,0,INVALID,131.918,VALID,0,VALID,23.4017,VALID,5,VALID,0.628906,
2014-10-24, 03:25:04,VALID,1009.44,VALID,0,INVALID,131.926,VALID,0,VALID,23.3823,VALID,5,VALID,0.593359,
2014-10-24, 03:26:04,VALID,1009.43,VALID,0,INVALID,131.842,VALID,0,VALID,23.4017,VALID,5,VALID,0.525,
2014-10-24, 03:27:04,VALID,1009.45,VALID,0,INVALID,131.773,VALID,0.112112,VALID,23.4017,VALID,5,VALID,0.387109,
2014-10-24, 03:28:04,VALID,1009.43,VALID,0,INVALID,131.765,VALID,0,VALID,23.4017,VALID,5,VALID,0.356641,
2014-10-24, 03:29:04,VALID,1009.47,VALID,0,INVALID,131.773,VALID,0.112112,VALID,23.4212,VALID,5,VALID,0.408984,
2014-10-24, 03:30:04,VALID,1009.44,VALID,0,INVALID,131.758,VALID,0,VALID,23.4017,VALID,5,VALID,0.00117188,
2014-10-24, 03:31:04,VALID,1009.43,VALID,0,INVALID,131.765,VALID,0,VALID,23.4212,VALID,5,VALID,0.235547,
2014-10-24, 03:32:04,VALID,1009.44,VALID,0,INVALID,131.826,VALID,0,VALID,23.4017,VALID,5,VALID,0,
2014-10-24, 03:33:04,VALID,1009.43,VALID,0,INVALID,131.865,VALID,0,VALID,23.4017,VALID,5,VALID,0,
2014-10-24, 03:34:04,VALID,1009.41,VALID,0,INVALID,131.887,VALID,0,VALID,23.4017,VALID,5,VALID,0,
2014-10-24, 03:35:04,VALID,1009.41,VALID,0,INVALID,131.926,VALID,0,VALID,23.3823,VALID,5,VALID,0,
2014-10-24, 03:36:04,VALID,1009.4,VALID,0,INVALID,131.941,VALID,0,VALID,23.3823,VALID,5,VALID,0.25625,
2014-10-24, 03:37:04,VALID,1009.38,VALID,0,INVALID,131.887,VALID,0.112112,VALID,23.3823,VALID,5,VALID,0.430469,
2014-10-24, 03:38:04,VALID,1009.39,VALID,0,INVALID,131.91,VALID,0.112112,VALID,23.4017,VALID,5,VALID,0.188281,
2014-10-24, 03:39:04,VALID,1009.4,VALID,0,INVALID,131.956,VALID,0,VALID,23.3823,VALID,5,VALID,0,
2014-10-24, 03:40:04,VALID,1009.41,VALID,0,INVALID,131.994,VALID,0.112112,VALID,23.361,VALID,5,VALID,0.228125,
2014-10-24, 03:41:04,VALID,1009.44,VALID,0,INVALID,131.994,VALID,0.112112,VALID,23.3823,VALID,5,VALID,0,
2014-10-24, 03:42:04,VALID,1009.43,VALID,0,INVALID,132.093,VALID,0.112112,VALID,23.3415,VALID,5,VALID,0,
2014-10-24, 03:43:04,VALID,1009.46,VALID,0,INVALID,132.139,VALID,0.112112,VALID,23.3628,VALID,5,VALID,0,
2014-10-24, 03:44:04,VALID,1009.46,VALID,0,INVALID,132.17,VALID,0.112112,VALID,23.3238,VALID,5,VALID,0,
2014-10-24, 03:45:04,VALID,1009.47,VALID,0,INVALID,132.253,VALID,0,VALID,23.2831,VALID,5,VALID,0,
2014-10-24, 03:46:04,VALID,1009.51,VALID,0,INVALID,132.36,VALID,0.112112,VALID,23.2848,VALID,5,VALID,0,
2014-10-24, 03:47:04,VALID,1009.51,VALID,0,INVALID,132.421,VALID,0.112112,VALID,23.2848,VALID,5,VALID,0,
2014-10-24, 03:48:04,VALID,1009.51,VALID,0,INVALID,132.444,VALID,0.112112,VALID,23.2848,VALID,5,VALID,0.201953,